Location: *
(51.1248°S, 108.4023°W)
Time: 04:23:55
(UTC+00:00)

ATLAS CENTAUR R/B - Pass Details

Date: 15 June 2021
Orbit: 472 x 671 km, 64.6° (Epoch: 13 June)

Event Time Altitude Azimuth Distance (km) Brightness Sun altitude
Exits shadow 14:19:02 - 216° (SW) 2,156 3.8 -8.5°
Reaches altitude 10° 14:19:45 10° 209° (SSW) 1,988 3.7 -8.4°
Maximum altitude 14:22:13 14° 176° (S) 1,680 3.6 -8.0°
Drops below altitude 10° 14:24:37 10° 142° (SE) 1,915 4.2 -7.7°
Sets 14:27:45 0° 116° (ESE) 2,762 5.4 -7.3°
